User: anonymous   Login
Location: Unspecified
(0.0000°N, 0.0000°E)
Time: 20:24:08
(UTC+00:00)
Language:

TBA - TO BE ASSIGNED - Orbit

View from above orbital plane
View from above orbital plane
View from above satellite
View from above satellite

Ground track
Ground track

The orbit is defined by the following mean orbital elements,

1 69090U          26145.45667198 +.00000000 +00000-0 +34157-4 0 00005
2 69090  88.9868 344.2125 0002825 153.2178 206.9161 14.24071791    09
Epoch (UTC): 25 May 2026 10:57:36
Eccentricity: 0.0002825
inclination: 88.9868°
perigee height: 810 km
apogee height: 814 km
right ascension of ascending node: 344.2125°
argument of perigee: 153.2178°
revolutions per day: 14.24071791
mean anomaly at epoch: 206.9161°

The dashed part of the orbit path shows where the satellite is in the earth's shadow,  

DLR